Wetterdaten: Dienstag, 15.08.2023
Datum Zeit Temp. Aussen Temp. o. S. Temp +5cm Feuchte Auss Luftdruck Regen Sonnenschein Regendauer Solar Windben Empfang
15.08.2023 07:30 18,9 C 18,3 C 13,9 C 96 % 1014,8 hPa 0,0 l/m 0 min 0 min 18 W/m 0,0 km/h (0 Bft) 97,37 %
15.08.2023 07:32 18,9 C 18,3 C 13,9 C 96 % 1014,8 hPa 0,0 l/m 0 min 0 min 20 W/m 0,0 km/h (0 Bft) 95,00 %
15.08.2023 07:34 18,9 C 17,8 C 13,9 C 96 % 1014,7 hPa 0,0 l/m 0 min 0 min 22 W/m 0,0 km/h (0 Bft) 95,65 %
15.08.2023 07:36 18,9 C 17,8 C 13,9 C 96 % 1014,8 hPa 0,0 l/m 0 min 0 min 23 W/m 3,2 km/h (1 Bft) 93,62 %
15.08.2023 07:38 18,8 C 17,8 C 13,9 C 96 % 1014,9 hPa 0,0 l/m 0 min 0 min 23 W/m 3,2 km/h (1 Bft) 95,74 %
15.08.2023 07:40 18,8 C 18,3 C 13,9 C 96 % 1014,9 hPa 0,0 l/m 0 min 0 min 21 W/m 3,2 km/h (1 Bft) 95,74 %
15.08.2023 07:42 18,8 C 18,3 C 13,9 C 96 % 1015,0 hPa 0,0 l/m 0 min 0 min 20 W/m 3,2 km/h (1 Bft) 93,62 %
15.08.2023 07:44 18,8 C 18,3 C 13,9 C 95 % 1015,0 hPa 0,0 l/m 0 min 0 min 20 W/m 3,2 km/h (1 Bft) 95,74 %
15.08.2023 07:46 18,7 C 18,3 C 13,9 C 95 % 1015,0 hPa 0,0 l/m 0 min 0 min 19 W/m 0,0 km/h (0 Bft) 95,65 %
15.08.2023 07:48 18,7 C 17,8 C 13,9 C 95 % 1015,1 hPa 0,0 l/m 0 min 0 min 19 W/m 0,0 km/h (0 Bft) 95,74 %
15.08.2023 07:50 18,8 C 17,8 C 13,9 C 95 % 1015,1 hPa 0,0 l/m 0 min 0 min 18 W/m 0,0 km/h (0 Bft) 95,74 %
15.08.2023 07:52 18,8 C 17,8 C 13,9 C 95 % 1015,1 hPa 0,0 l/m 0 min 0 min 20 W/m 0,0 km/h (0 Bft) 97,87 %
15.08.2023 07:54 18,8 C 17,8 C 13,9 C 96 % 1015,2 hPa 0,0 l/m 0 min 0 min 28 W/m 0,0 km/h (0 Bft) 95,74 %
15.08.2023 07:56 18,8 C 17,8 C 13,9 C 96 % 1015,1 hPa 0,0 l/m 0 min 0 min 52 W/m 0,0 km/h (0 Bft) 97,87 %
15.08.2023 07:58 18,8 C 18,3 C 13,9 C 96 % 1015,1 hPa 0,0 l/m 0 min 0 min 57 W/m 0,0 km/h (0 Bft) 95,65 %
15.08.2023 08:00 18,8 C 18,3 C 13,9 C 96 % 1015,1 hPa 0,0 l/m 0 min 0 min 53 W/m 0,0 km/h (0 Bft) 97,87 %
15.08.2023 08:02 18,8 C 18,3 C 13,9 C 96 % 1015,1 hPa 0,0 l/m 0 min 0 min 40 W/m 0,0 km/h (0 Bft) 95,74 %
15.08.2023 08:04 18,8 C 18,3 C 13,9 C 96 % 1015,0 hPa 0,0 l/m 0 min 0 min 47 W/m 0,0 km/h (0 Bft) 95,74 %
15.08.2023 08:06 18,8 C 18,3 C 13,9 C 96 % 1015,1 hPa 0,0 l/m 0 min 0 min 47 W/m 3,2 km/h (1 Bft) 97,87 %
15.08.2023 08:08 18,8 C 18,3 C 13,9 C 96 % 1015,1 hPa 0,0 l/m 0 min 0 min 42 W/m 0,0 km/h (0 Bft) 97,87 %
15.08.2023 08:10 18,8 C 18,3 C 13,9 C 96 % 1015,1 hPa 0,0 l/m 0 min 0 min 36 W/m 0,0 km/h (0 Bft) 97,87 %
15.08.2023 08:12 18,8 C 18,3 C 13,9 C 96 % 1015,2 hPa 0,0 l/m 0 min 0 min 33 W/m 0,0 km/h (0 Bft) 93,62 %
15.08.2023 08:14 18,8 C 18,3 C 13,9 C 96 % 1015,3 hPa 0,0 l/m 0 min 0 min 34 W/m 0,0 km/h (0 Bft) 97,87 %
15.08.2023 08:16 18,9 C 18,3 C 13,9 C 96 % 1015,3 hPa 0,0 l/m 0 min 0 min 29 W/m 0,0 km/h (0 Bft) 100,00 %
15.08.2023 08:18 18,9 C 18,3 C 13,9 C 96 % 1015,3 hPa 0,0 l/m 0 min 0 min 27 W/m 0,0 km/h (0 Bft) 100,00 %
15.08.2023 08:20 18,8 C 18,3 C 13,9 C 96 % 1015,3 hPa 0,0 l/m 0 min 0 min 26 W/m 0,0 km/h (0 Bft) 100,00 %
15.08.2023 08:22 18,8 C 18,3 C 13,9 C 96 % 1015,3 hPa 0,0 l/m 0 min 0 min 33 W/m 0,0 km/h (0 Bft) 100,00 %
15.08.2023 08:24 18,9 C 18,3 C 13,9 C 96 % 1015,3 hPa 0,0 l/m 0 min 0 min 39 W/m 0,0 km/h (0 Bft) 100,00 %
15.08.2023 08:26 18,8 C 18,3 C 13,9 C 96 % 1015,4 hPa 0,0 l/m 0 min 0 min 43 W/m 0,0 km/h (0 Bft) 100,00 %
15.08.2023 08:28 18,8 C 18,3 C 13,9 C 95 % 1015,4 hPa 0,0 l/m 0 min 0 min 45 W/m 0,0 km/h (0 Bft) 100,00 %
15.08.2023 08:30 18,8 C 18,3 C 13,9 C 95 % 1015,4 hPa 0,0 l/m 0 min 0 min 48 W/m 0,0 km/h (0 Bft) 100,00 %
15.08.2023 08:32 18,8 C 18,3 C 13,9 C 95 % 1015,4 hPa 0,0 l/m 0 min 0 min 50 W/m 0,0 km/h (0 Bft) 97,87 %
15.08.2023 08:34 18,8 C 18,3 C 13,9 C 95 % 1015,4 hPa 0,0 l/m 0 min 0 min 57 W/m 3,2 km/h (1 Bft) 97,87 %
15.08.2023 08:36 18,8 C 18,3 C 14,4 C 95 % 1015,4 hPa 0,0 l/m 0 min 0 min 63 W/m 0,0 km/h (0 Bft) 97,87 %
15.08.2023 08:38 18,9 C 18,9 C 14,4 C 95 % 1015,5 hPa 0,0 l/m 0 min 0 min 64 W/m 3,2 km/h (1 Bft) 100,00 %
15.08.2023 08:40 18,9 C 18,9 C 14,4 C 96 % 1015,5 hPa 0,0 l/m 0 min 0 min 63 W/m 0,0 km/h (0 Bft) 100,00 %
15.08.2023 08:42 18,9 C 18,9 C 14,4 C 96 % 1015,5 hPa 0,0 l/m 0 min 0 min 61 W/m 3,2 km/h (1 Bft) 100,00 %
15.08.2023 08:44 19,0 C 18,9 C 14,4 C 96 % 1015,5 hPa 0,0 l/m 0 min 0 min 84 W/m 0,0 km/h (0 Bft) 100,00 %
15.08.2023 08:46 19,1 C 18,9 C 14,4 C 96 % 1015,5 hPa 0,0 l/m 0 min 0 min 115 W/m 0,0 km/h (0 Bft) 97,87 %
15.08.2023 08:48 19,1 C 18,9 C 14,4 C 96 % 1015,5 hPa 0,0 l/m 0 min 0 min 124 W/m 0,0 km/h (0 Bft) 97,87 %
15.08.2023 08:50 19,1 C 18,9 C 14,4 C 96 % 1015,5 hPa 0,0 l/m 0 min 0 min 105 W/m 0,0 km/h (0 Bft) 97,87 %
15.08.2023 08:52 19,1 C 19,4 C 14,4 C 96 % 1015,5 hPa 0,0 l/m 0 min 0 min 123 W/m 0,0 km/h (0 Bft) 95,74 %
15.08.2023 08:54 19,2 C 19,4 C 14,4 C 96 % 1015,5 hPa 0,0 l/m 0 min 0 min 135 W/m 0,0 km/h (0 Bft) 95,65 %
15.08.2023 08:56 19,2 C 19,4 C 15,0 C 96 % 1015,5 hPa 0,0 l/m 0 min 0 min 140 W/m 0,0 km/h (0 Bft) 95,74 %
15.08.2023 08:58 19,2 C 20,0 C 15,0 C 96 % 1015,5 hPa 0,0 l/m 0 min 0 min 171 W/m 0,0 km/h (0 Bft) 97,87 %
15.08.2023 09:00 19,3 C 20,0 C 15,0 C 96 % 1015,6 hPa 0,0 l/m 0 min 0 min 168 W/m 6,4 km/h (2 Bft) 97,87 %
15.08.2023 09:02 19,3 C 20,0 C 14,4 C 96 % 1015,6 hPa 0,0 l/m 0 min 0 min 160 W/m 3,2 km/h (1 Bft) 97,87 %
15.08.2023 09:04 19,3 C 20,0 C 15,0 C 95 % 1015,6 hPa 0,0 l/m 0 min 0 min 179 W/m 6,4 km/h (2 Bft) 97,87 %
15.08.2023 09:06 19,3 C 20,6 C 15,0 C 95 % 1015,6 hPa 0,0 l/m 0 min 0 min 185 W/m 6,4 km/h (2 Bft) 97,83 %
15.08.2023 09:08 19,4 C 20,6 C 15,0 C 95 % 1015,6 hPa 0,0 l/m 0 min 0 min 161 W/m 6,4 km/h (2 Bft) 97,87 %
15.08.2023 09:10 19,4 C 21,1 C 14,4 C 95 % 1015,6 hPa 0,0 l/m 0 min 0 min 179 W/m 6,4 km/h (2 Bft) 95,74 %
15.08.2023 09:12 19,5 C 22,2 C 14,4 C 95 % 1015,6 hPa 0,0 l/m 2 min 0 min 217 W/m 3,2 km/h (1 Bft) 93,62 %
15.08.2023 09:14 19,6 C 22,8 C 15,0 C 95 % 1015,6 hPa 0,0 l/m 2 min 0 min 329 W/m 3,2 km/h (1 Bft) 95,74 %
15.08.2023 09:16 19,6 C 22,2 C 14,4 C 95 % 1015,6 hPa 0,0 l/m 2 min 0 min 232 W/m 6,4 km/h (2 Bft) 93,62 %
15.08.2023 09:18 19,7 C 22,2 C 15,0 C 95 % 1015,6 hPa 0,0 l/m 0 min 0 min 172 W/m 3,2 km/h (1 Bft) 93,62 %
15.08.2023 09:20 19,7 C 21,7 C 15,0 C 95 % 1015,6 hPa 0,0 l/m 0 min 0 min 176 W/m 9,7 km/h (2 Bft) 89,13 %
15.08.2023 09:25 19,8 C 21,1 C 15,0 C 94 % 1015,6 hPa 0,0 l/m 0 min 0 min 169 W/m 9,7 km/h (2 Bft) 97,37 %
15.08.2023 09:30 19,8 C 22,2 C 14,4 C 93 % 1015,6 hPa 0,0 l/m 0 min 0 min 218 W/m 6,4 km/h (2 Bft) 95,28 %
15.08.2023 09:32 19,9 C 22,8 C 15,0 C 93 % 1015,6 hPa 0,0 l/m 2 min 0 min 402 W/m 6,4 km/h (2 Bft) 95,16 %
15.08.2023 09:34 19,9 C 23,9 C 15,0 C 93 % 1015,6 hPa 0,0 l/m 2 min 0 min 436 W/m 3,2 km/h (1 Bft) 95,74 %
15.08.2023 09:36 20,1 C 24,4 C 15,0 C 92 % 1015,6 hPa 0,0 l/m 2 min 0 min 437 W/m 6,4 km/h (2 Bft) 89,36 %
15.08.2023 09:38 20,1 C 24,4 C 14,4 C 92 % 1015,7 hPa 0,0 l/m 2 min 0 min 440 W/m 3,2 km/h (1 Bft) 95,74 %
15.08.2023 09:40 20,2 C 24,4 C 14,4 C 92 % 1015,7 hPa 0,0 l/m 2 min 0 min 448 W/m 3,2 km/h (1 Bft) 97,87 %
15.08.2023 09:42 20,3 C 23,9 C 14,4 C 91 % 1015,7 hPa 0,0 l/m 2 min 0 min 422 W/m 9,7 km/h (2 Bft) 100,00 %
15.08.2023 09:44 20,4 C 23,3 C 14,4 C 91 % 1015,7 hPa 0,0 l/m 2 min 0 min 453 W/m 6,4 km/h (2 Bft) 100,00 %
15.08.2023 09:46 20,5 C 22,2 C 14,4 C 91 % 1015,7 hPa 0,0 l/m 2 min 0 min 468 W/m 0,0 km/h (0 Bft) 100,00 %
15.08.2023 09:48 20,6 C 22,2 C 14,4 C 90 % 1015,7 hPa 0,0 l/m 2 min 0 min 456 W/m 6,4 km/h (2 Bft) 100,00 %
15.08.2023 09:50 20,7 C 22,2 C 14,4 C 90 % 1015,7 hPa 0,0 l/m 2 min 0 min 488 W/m 3,2 km/h (1 Bft) 100,00 %
15.08.2023 09:52 20,8 C 21,7 C 14,4 C 90 % 1015,7 hPa 0,0 l/m 2 min 0 min 503 W/m 6,4 km/h (2 Bft) 100,00 %
15.08.2023 09:54 20,9 C 21,7 C 14,4 C 89 % 1015,7 hPa 0,0 l/m 2 min 0 min 514 W/m 6,4 km/h (2 Bft) 100,00 %
15.08.2023 09:56 20,9 C 21,7 C 14,4 C 89 % 1015,8 hPa 0,0 l/m 2 min 0 min 485 W/m 6,4 km/h (2 Bft) 100,00 %
15.08.2023 10:00 21,1 C 21,7 C 15,0 C 89 % 1015,8 hPa 0,0 l/m 4 min 0 min 492 W/m 3,2 km/h (1 Bft) 100,00 %
15.08.2023 10:02 21,2 C 21,7 C 14,4 C 88 % 1015,8 hPa 0,0 l/m 2 min 0 min 515 W/m 3,2 km/h (1 Bft) 99,29 %
15.08.2023 10:04 21,2 C 21,7 C 14,4 C 88 % 1015,7 hPa 0,0 l/m 2 min 0 min 525 W/m 6,4 km/h (2 Bft) 100,00 %
15.08.2023 10:06 21,3 C 21,1 C 14,4 C 88 % 1015,7 hPa 0,0 l/m 2 min 0 min 539 W/m 6,4 km/h (2 Bft) 100,00 %
15.08.2023 10:08 21,3 C 21,7 C 14,4 C 88 % 1015,7 hPa 0,0 l/m 2 min 0 min 534 W/m 3,2 km/h (1 Bft) 97,87 %
15.08.2023 10:10 21,4 C 21,7 C 15,0 C 88 % 1015,7 hPa 0,0 l/m 2 min 0 min 550 W/m 9,7 km/h (2 Bft) 97,87 %
15.08.2023 10:12 21,5 C 21,7 C 15,0 C 87 % 1015,7 hPa 0,0 l/m 2 min 0 min 370 W/m 3,2 km/h (1 Bft) 100,00 %
15.08.2023 10:14 21,5 C 21,7 C 15,0 C 87 % 1015,7 hPa 0,0 l/m 2 min 0 min 293 W/m 3,2 km/h (1 Bft) 97,87 %
15.08.2023 10:16 21,6 C 21,7 C 14,4 C 86 % 1015,8 hPa 0,0 l/m 2 min 0 min 392 W/m 6,4 km/h (2 Bft) 97,62 %
15.08.2023 10:18 21,6 C 22,2 C 15,0 C 86 % 1015,8 hPa 0,0 l/m 2 min 0 min 390 W/m 9,7 km/h (2 Bft) 97,87 %
15.08.2023 10:20 21,6 C 22,2 C 15,0 C 86 % 1015,8 hPa 0,0 l/m 2 min 0 min 368 W/m 9,7 km/h (2 Bft) 97,87 %
15.08.2023 10:22 21,6 C 22,8 C 14,4 C 85 % 1015,9 hPa 0,0 l/m 2 min 0 min 352 W/m 6,4 km/h (2 Bft) 97,87 %
15.08.2023 10:24 21,7 C 23,3 C 14,4 C 85 % 1015,9 hPa 0,0 l/m 2 min 0 min 440 W/m 6,4 km/h (2 Bft) 97,87 %
15.08.2023 10:26 21,7 C 24,4 C 14,4 C 85 % 1015,9 hPa 0,0 l/m 2 min 0 min 586 W/m 6,4 km/h (2 Bft) 97,83 %
15.08.2023 10:28 21,7 C 25,6 C 15,0 C 84 % 1015,9 hPa 0,0 l/m 2 min 0 min 640 W/m 3,2 km/h (1 Bft) 97,87 %
15.08.2023 10:30 21,8 C 25,6 C 15,0 C 84 % 1015,9 hPa 0,0 l/m 2 min 0 min 613 W/m 3,2 km/h (1 Bft) 98,08 %
15.08.2023 10:32 21,9 C 25,0 C 15,0 C 84 % 1016,0 hPa 0,0 l/m 2 min 0 min 376 W/m 3,2 km/h (1 Bft) 95,74 %
15.08.2023 10:34 21,9 C 24,4 C 15,0 C 84 % 1016,1 hPa 0,0 l/m 2 min 0 min 337 W/m 6,4 km/h (2 Bft) 97,87 %
15.08.2023 10:36 22,0 C 23,9 C 15,0 C 83 % 1016,1 hPa 0,0 l/m 2 min 0 min 401 W/m 6,4 km/h (2 Bft) 97,87 %
15.08.2023 10:38 22,1 C 23,9 C 15,0 C 82 % 1016,1 hPa 0,0 l/m 2 min 0 min 428 W/m 3,2 km/h (1 Bft) 97,87 %
15.08.2023 10:40 22,1 C 23,9 C 16,1 C 82 % 1016,1 hPa 0,0 l/m 2 min 0 min 367 W/m 9,7 km/h (2 Bft) 97,83 %
15.08.2023 10:42 22,2 C 23,3 C 16,7 C 82 % 1016,1 hPa 0,0 l/m 2 min 0 min 462 W/m 3,2 km/h (1 Bft) 97,87 %
15.08.2023 10:44 22,2 C 23,3 C 16,7 C 82 % 1016,1 hPa 0,0 l/m 2 min 0 min 682 W/m 3,2 km/h (1 Bft) 97,87 %
15.08.2023 10:46 22,3 C 23,3 C 16,7 C 82 % 1016,1 hPa 0,0 l/m 2 min 0 min 630 W/m 0,0 km/h (0 Bft) 97,87 %
15.08.2023 10:48 22,3 C 22,8 C 16,7 C 82 % 1016,1 hPa 0,0 l/m 2 min 0 min 508 W/m 3,2 km/h (1 Bft) 93,62 %
15.08.2023 10:50 22,4 C 23,3 C 16,7 C 82 % 1016,1 hPa 0,0 l/m 2 min 0 min 658 W/m 3,2 km/h (1 Bft) 97,87 %
15.08.2023 10:52 22,5 C 23,3 C 17,2 C 82 % 1016,1 hPa 0,0 l/m 2 min 0 min 647 W/m 6,4 km/h (2 Bft) 97,83 %
15.08.2023 10:54 22,6 C 23,3 C 17,2 C 82 % 1016,1 hPa 0,0 l/m 2 min 0 min 664 W/m 9,7 km/h (2 Bft) 95,74 %
15.08.2023 10:56 22,6 C 22,8 C 17,2 C 81 % 1016,0 hPa 0,0 l/m 2 min 0 min 584 W/m 6,4 km/h (2 Bft) 97,87 %
15.08.2023 10:58 22,6 C 22,8 C 17,2 C 80 % 1016,0 hPa 0,0 l/m 2 min 0 min 584 W/m 6,4 km/h (2 Bft) 97,87 %
15.08.2023 11:00 22,6 C 22,8 C 17,8 C 80 % 1016,1 hPa 0,0 l/m 2 min 0 min 665 W/m 6,4 km/h (2 Bft) 97,87 %
15.08.2023 11:02 22,7 C 22,8 C 17,8 C 80 % 1016,1 hPa 0,0 l/m 2 min 0 min 674 W/m 6,4 km/h (2 Bft) 100,00 %
15.08.2023 11:04 22,7 C 22,8 C 17,8 C 80 % 1016,0 hPa 0,0 l/m 2 min 0 min 682 W/m 0,0 km/h (0 Bft) 100,00 %
15.08.2023 11:06 22,8 C 23,3 C 18,3 C 80 % 1016,0 hPa 0,0 l/m 2 min 0 min 690 W/m 12,9 km/h (3 Bft) 95,74 %
15.08.2023 11:08 22,8 C 23,3 C 18,3 C 80 % 1016,0 hPa 0,0 l/m 2 min 0 min 698 W/m 3,2 km/h (1 Bft) 95,74 %
15.08.2023 11:10 22,9 C 23,9 C 18,3 C 80 % 1016,0 hPa 0,0 l/m 2 min 0 min 704 W/m 3,2 km/h (1 Bft) 95,74 %
15.08.2023 11:12 22,9 C 23,9 C 18,3 C 80 % 1016,0 hPa 0,0 l/m 2 min 0 min 702 W/m 12,9 km/h (3 Bft) 97,87 %
15.08.2023 11:14 23,0 C 23,9 C 18,3 C 80 % 1016,1 hPa 0,0 l/m 2 min 0 min 710 W/m 9,7 km/h (2 Bft) 95,74 %
15.08.2023 11:16 23,1 C 23,9 C 18,3 C 79 % 1016,1 hPa 0,0 l/m 2 min 0 min 717 W/m 12,9 km/h (3 Bft) 93,62 %
15.08.2023 11:18 23,2 C 23,9 C 18,9 C 79 % 1016,1 hPa 0,0 l/m 2 min 0 min 728 W/m 16,1 km/h (3 Bft) 97,83 %
15.08.2023 11:20 23,2 C 24,4 C 18,9 C 79 % 1016,2 hPa 0,0 l/m 2 min 0 min 667 W/m 19,3 km/h (3 Bft) 97,87 %
15.08.2023 11:22 23,3 C 25,6 C 19,4 C 79 % 1016,2 hPa 0,0 l/m 2 min 0 min 690 W/m 6,4 km/h (2 Bft) 97,87 %
15.08.2023 11:24 23,3 C 26,7 C 20,0 C 79 % 1016,2 hPa 0,0 l/m 2 min 0 min 723 W/m 16,1 km/h (3 Bft) 97,87 %
15.08.2023 11:26 23,4 C 27,2 C 20,0 C 78 % 1016,2 hPa 0,0 l/m 2 min 0 min 674 W/m 9,7 km/h (2 Bft) 97,87 %
15.08.2023 11:28 23,5 C 28,3 C 19,4 C 78 % 1016,2 hPa 0,0 l/m 2 min 0 min 672 W/m 6,4 km/h (2 Bft) 97,87 %
15.08.2023 11:30 23,6 C 29,4 C 19,4 C 78 % 1016,2 hPa 0,0 l/m 2 min 0 min 757 W/m 6,4 km/h (2 Bft) 97,87 %
15.08.2023 11:32 23,6 C 28,3 C 19,4 C 77 % 1016,2 hPa 0,0 l/m 2 min 0 min 719 W/m 6,4 km/h (2 Bft) 97,83 %
15.08.2023 11:34 23,7 C 27,2 C 20,0 C 77 % 1016,3 hPa 0,0 l/m 2 min 0 min 710 W/m 9,7 km/h (2 Bft) 97,87 %
15.08.2023 11:36 23,8 C 27,2 C 20,0 C 77 % 1016,3 hPa 0,0 l/m 2 min 0 min 557 W/m 9,7 km/h (2 Bft) 97,87 %
15.08.2023 11:38 23,8 C 26,7 C 20,0 C 77 % 1016,3 hPa 0,0 l/m 2 min 0 min 526 W/m 6,4 km/h (2 Bft) 95,74 %
15.08.2023 11:40 23,9 C 26,7 C 20,0 C 77 % 1016,3 hPa 0,0 l/m 2 min 0 min 610 W/m 6,4 km/h (2 Bft) 97,87 %
15.08.2023 11:42 23,9 C 26,1 C 20,0 C 77 % 1016,3 hPa 0,0 l/m 2 min 0 min 595 W/m 3,2 km/h (1 Bft) 97,87 %
15.08.2023 11:44 24,0 C 26,1 C 20,0 C 76 % 1016,3 hPa 0,0 l/m 2 min 0 min 536 W/m 6,4 km/h (2 Bft) 97,83 %
15.08.2023 11:46 24,0 C 26,1 C 20,0 C 76 % 1016,3 hPa 0,0 l/m 2 min 0 min 773 W/m 3,2 km/h (1 Bft) 97,87 %
15.08.2023 11:48 24,1 C 26,1 C 20,0 C 76 % 1016,3 hPa 0,0 l/m 2 min 0 min 834 W/m 3,2 km/h (1 Bft) 100,00 %
15.08.2023 11:50 24,1 C 26,1 C 20,0 C 76 % 1016,3 hPa 0,0 l/m 2 min 0 min 829 W/m 6,4 km/h (2 Bft) 97,87 %
15.08.2023 11:52 24,1 C 26,1 C 20,0 C 76 % 1016,3 hPa 0,0 l/m 2 min 0 min 819 W/m 12,9 km/h (3 Bft) 100,00 %
15.08.2023 11:54 24,2 C 26,7 C 20,6 C 77 % 1016,3 hPa 0,0 l/m 2 min 0 min 812 W/m 12,9 km/h (3 Bft) 100,00 %
15.08.2023 11:56 24,3 C 27,2 C 20,6 C 76 % 1016,3 hPa 0,0 l/m 2 min 0 min 760 W/m 9,7 km/h (2 Bft) 97,87 %
15.08.2023 11:58 24,3 C 27,2 C 21,1 C 75 % 1016,3 hPa 0,0 l/m 2 min 0 min 650 W/m 3,2 km/h (1 Bft) 100,00 %
15.08.2023 12:00 24,4 C 26,7 C 21,1 C 75 % 1016,4 hPa 0,0 l/m 2 min 0 min 720 W/m 6,4 km/h (2 Bft) 97,87 %
15.08.2023 12:02 24,5 C 27,2 C 21,1 C 75 % 1016,4 hPa 0,0 l/m 2 min 0 min 721 W/m 12,9 km/h (3 Bft) 89,36 %
15.08.2023 12:04 24,6 C 27,8 C 21,1 C 75 % 1016,4 hPa 0,0 l/m 2 min 0 min 862 W/m 6,4 km/h (2 Bft) 100,00 %
15.08.2023 12:07 24,7 C 27,8 C 21,1 C 73 % 1016,4 hPa 0,0 l/m 3 min 0 min 904 W/m 9,7 km/h (2 Bft) 100,00 %
15.08.2023 12:08 24,7 C 28,3 C 21,1 C 74 % 1016,4 hPa 0,0 l/m 1 min 0 min 907 W/m 3,2 km/h (1 Bft) 100,00 %
15.08.2023 12:12 24,8 C 26,1 C 21,7 C 74 % 1016,5 hPa 0,0 l/m 0 min 0 min 185 W/m 3,2 km/h (1 Bft) 95,16 %
15.08.2023 12:14 24,7 C 25,6 C 21,1 C 73 % 1016,5 hPa 0,0 l/m 0 min 0 min 150 W/m 9,7 km/h (2 Bft) 95,74 %
15.08.2023 12:16 24,6 C 25,0 C 20,6 C 73 % 1016,6 hPa 0,0 l/m 0 min 0 min 187 W/m 6,4 km/h (2 Bft) 97,87 %
15.08.2023 12:18 24,6 C 25,0 C 20,6 C 73 % 1016,5 hPa 0,0 l/m 0 min 0 min 282 W/m 6,4 km/h (2 Bft) 97,87 %
15.08.2023 12:20 24,6 C 27,2 C 20,6 C 73 % 1016,5 hPa 0,0 l/m 0 min 0 min 287 W/m 3,2 km/h (1 Bft) 97,87 %
15.08.2023 12:22 24,5 C 26,1 C 20,6 C 73 % 1016,6 hPa 0,0 l/m 0 min 0 min 276 W/m 6,4 km/h (2 Bft) 97,87 %
15.08.2023 12:24 24,6 C 26,1 C 20,6 C 73 % 1016,6 hPa 0,0 l/m 0 min 0 min 295 W/m 3,2 km/h (1 Bft) 95,65 %
15.08.2023 12:26 24,6 C 26,1 C 20,6 C 73 % 1016,6 hPa 0,0 l/m 0 min 0 min 309 W/m 9,7 km/h (2 Bft) 97,87 %
15.08.2023 12:28 24,6 C 25,6 C 20,6 C 73 % 1016,6 hPa 0,0 l/m 0 min 0 min 312 W/m 9,7 km/h (2 Bft) 97,87 %
15.08.2023 12:30 24,6 C 26,1 C 20,6 C 73 % 1016,6 hPa 0,0 l/m 2 min 0 min 393 W/m 6,4 km/h (2 Bft) 97,87 %
15.08.2023 12:32 24,6 C 26,7 C 21,1 C 73 % 1016,7 hPa 0,0 l/m 0 min 0 min 374 W/m 9,7 km/h (2 Bft) 95,74 %
15.08.2023 12:34 24,6 C 27,2 C 21,1 C 73 % 1016,6 hPa 0,0 l/m 0 min 0 min 369 W/m 0,0 km/h (0 Bft) 97,14 %
15.08.2023 12:36 24,6 C 26,7 C 20,6 C 74 % 1016,7 hPa 0,0 l/m 0 min 0 min 250 W/m 0,0 km/h (0 Bft) 96,61 %
15.08.2023 12:38 24,7 C 25,6 C 20,6 C 73 % 1016,7 hPa 0,0 l/m 0 min 0 min 229 W/m 0,0 km/h (0 Bft) 97,83 %
15.08.2023 12:40 24,7 C 25,6 C 20,6 C 74 % 1016,7 hPa 0,0 l/m 0 min 0 min 219 W/m 6,4 km/h (2 Bft) 97,87 %
15.08.2023 12:42 24,7 C 26,1 C 20,6 C 74 % 1016,7 hPa 0,0 l/m 0 min 0 min 195 W/m 6,4 km/h (2 Bft) 95,74 %
15.08.2023 12:44 24,7 C 26,1 C 20,6 C 73 % 1016,6 hPa 0,0 l/m 0 min 0 min 279 W/m 6,4 km/h (2 Bft) 97,14 %
15.08.2023 12:46 24,7 C 26,1 C 20,6 C 73 % 1016,6 hPa 0,0 l/m 2 min 0 min 552 W/m 9,7 km/h (2 Bft) 97,87 %
15.08.2023 12:48 24,9 C 27,2 C 21,1 C 73 % 1016,6 hPa 0,0 l/m 2 min 0 min 824 W/m 9,7 km/h (2 Bft) 98,31 %
15.08.2023 12:50 24,9 C 26,1 C 20,6 C 72 % 1016,6 hPa 0,0 l/m 2 min 0 min 666 W/m 12,9 km/h (3 Bft) 97,83 %
15.08.2023 12:52 25,0 C 25,6 C 20,6 C 72 % 1016,6 hPa 0,0 l/m 0 min 0 min 225 W/m 9,7 km/h (2 Bft) 97,87 %
15.08.2023 12:54 25,1 C 25,0 C 20,6 C 72 % 1016,6 hPa 0,0 l/m 0 min 0 min 230 W/m 6,4 km/h (2 Bft) 97,22 %
15.08.2023 12:56 25,1 C 25,0 C 20,6 C 72 % 1016,6 hPa 0,0 l/m 0 min 0 min 288 W/m 12,9 km/h (3 Bft) 95,65 %
15.08.2023 12:58 25,1 C 25,0 C 20,6 C 72 % 1016,5 hPa 0,0 l/m 0 min 0 min 269 W/m 6,4 km/h (2 Bft) 95,74 %
15.08.2023 13:00 25,1 C 25,0 C 20,0 C 72 % 1016,6 hPa 0,0 l/m 0 min 0 min 220 W/m 9,7 km/h (2 Bft) 97,87 %
15.08.2023 13:02 25,0 C 24,4 C 20,0 C 72 % 1016,5 hPa 0,0 l/m 0 min 0 min 190 W/m 6,4 km/h (2 Bft) 95,74 %
15.08.2023 13:04 25,0 C 24,4 C 20,0 C 73 % 1016,6 hPa 0,0 l/m 0 min 0 min 157 W/m 0,0 km/h (0 Bft) 97,87 %
15.08.2023 13:06 24,9 C 24,4 C 20,0 C 73 % 1016,6 hPa 0,0 l/m 0 min 0 min 175 W/m 0,0 km/h (0 Bft) 96,61 %
15.08.2023 13:08 24,9 C 24,4 C 20,0 C 73 % 1016,6 hPa 0,0 l/m 0 min 0 min 206 W/m 0,0 km/h (0 Bft) 93,62 %
15.08.2023 13:10 24,9 C 24,4 C 20,0 C 73 % 1016,6 hPa 0,0 l/m 0 min 0 min 204 W/m 0,0 km/h (0 Bft) 97,14 %
15.08.2023 13:12 24,8 C 24,4 C 20,0 C 72 % 1016,6 hPa 0,0 l/m 0 min 0 min 177 W/m 0,0 km/h (0 Bft) 93,48 %
15.08.2023 13:14 24,8 C 24,4 C 20,0 C 73 % 1016,5 hPa 0,0 l/m 0 min 0 min 171 W/m 0,0 km/h (0 Bft) 95,74 %
15.08.2023 13:16 24,7 C 24,4 C 20,0 C 73 % 1016,6 hPa 0,0 l/m 0 min 0 min 164 W/m 0,0 km/h (0 Bft) 95,74 %
15.08.2023 13:18 24,7 C 24,4 C 20,0 C 74 % 1016,5 hPa 0,0 l/m 0 min 0 min 213 W/m 0,0 km/h (0 Bft) 95,74 %
15.08.2023 13:20 24,7 C 24,4 C 20,0 C 73 % 1016,5 hPa 0,0 l/m 0 min 0 min 252 W/m 0,0 km/h (0 Bft) 95,74 %
15.08.2023 13:22 24,7 C 25,0 C 20,0 C 73 % 1016,6 hPa 0,0 l/m 0 min 0 min 309 W/m 0,0 km/h (0 Bft) 93,62 %
15.08.2023 13:24 24,7 C 25,0 C 20,0 C 74 % 1016,6 hPa 0,0 l/m 0 min 0 min 284 W/m 0,0 km/h (0 Bft) 93,62 %
15.08.2023 13:26 24,6 C 24,4 C 20,0 C 74 % 1016,6 hPa 0,0 l/m 0 min 0 min 211 W/m 0,0 km/h (0 Bft) 95,65 %
15.08.2023 13:28 24,6 C 24,4 C 20,0 C 74 % 1016,6 hPa 0,0 l/m 0 min 0 min 184 W/m 0,0 km/h (0 Bft) 93,62 %
15.08.2023 13:30 24,6 C 24,4 C 20,0 C 75 % 1016,6 hPa 0,0 l/m 0 min 0 min 169 W/m 0,0 km/h (0 Bft) 97,87 %
15.08.2023 13:32 24,6 C 24,4 C 20,0 C 74 % 1016,6 hPa 0,0 l/m 0 min 0 min 146 W/m 0,0 km/h (0 Bft) 93,62 %
15.08.2023 13:34 24,6 C 24,4 C 20,0 C 75 % 1016,6 hPa 0,0 l/m 0 min 0 min 150 W/m 0,0 km/h (0 Bft) 95,74 %
15.08.2023 13:36 24,6 C 23,9 C 20,0 C 75 % 1016,7 hPa 0,0 l/m 0 min 0 min 154 W/m 0,0 km/h (0 Bft) 95,74 %
15.08.2023 13:38 24,6 C 23,9 C 20,0 C 75 % 1016,7 hPa 0,0 l/m 0 min 0 min 150 W/m 0,0 km/h (0 Bft) 95,74 %
15.08.2023 13:40 24,6 C 23,9 C 20,0 C 76 % 1016,7 hPa 0,0 l/m 0 min 0 min 200 W/m 0,0 km/h (0 Bft) 97,83 %
15.08.2023 13:42 24,6 C 23,9 C 20,0 C 76 % 1016,8 hPa 0,0 l/m 0 min 0 min 228 W/m 0,0 km/h (0 Bft) 97,87 %
15.08.2023 13:44 24,6 C 24,4 C 20,0 C 76 % 1016,7 hPa 0,0 l/m 0 min 0 min 226 W/m 0,0 km/h (0 Bft) 100,00 %
15.08.2023 13:46 24,6 C 23,9 C 20,0 C 76 % 1016,8 hPa 0,0 l/m 0 min 0 min 184 W/m 6,4 km/h (2 Bft) 100,00 %
15.08.2023 13:48 24,6 C 23,9 C 20,0 C 76 % 1016,8 hPa 0,0 l/m 0 min 0 min 162 W/m 3,2 km/h (1 Bft) 100,00 %
15.08.2023 13:50 24,6 C 23,9 C 20,0 C 76 % 1016,7 hPa 0,0 l/m 0 min 0 min 159 W/m 6,4 km/h (2 Bft) 97,87 %
15.08.2023 13:52 24,6 C 23,9 C 19,4 C 76 % 1016,7 hPa 0,0 l/m 0 min 0 min 154 W/m 6,4 km/h (2 Bft) 100,00 %
15.08.2023 13:54 24,6 C 23,9 C 19,4 C 76 % 1016,7 hPa 0,0 l/m 0 min 0 min 157 W/m 3,2 km/h (1 Bft) 100,00 %
15.08.2023 13:56 24,6 C 23,9 C 19,4 C 76 % 1016,7 hPa 0,0 l/m 0 min 0 min 180 W/m 6,4 km/h (2 Bft) 97,87 %
15.08.2023 13:58 24,6 C 23,9 C 20,0 C 75 % 1016,8 hPa 0,0 l/m 0 min 0 min 216 W/m 12,9 km/h (3 Bft) 100,00 %
15.08.2023 14:00 24,6 C 23,9 C 20,0 C 75 % 1016,8 hPa 0,0 l/m 0 min 0 min 221 W/m 6,4 km/h (2 Bft) 97,87 %
15.08.2023 14:02 24,5 C 24,4 C 20,0 C 74 % 1016,8 hPa 0,0 l/m 0 min 0 min 269 W/m 12,9 km/h (3 Bft) 100,00 %
15.08.2023 14:04 24,6 C 25,0 C 20,0 C 75 % 1016,7 hPa 0,0 l/m 0 min 0 min 319 W/m 6,4 km/h (2 Bft) 100,00 %
15.08.2023 14:06 24,6 C 25,0 C 20,0 C 76 % 1016,8 hPa 0,0 l/m 0 min 0 min 292 W/m 6,4 km/h (2 Bft) 100,00 %
15.08.2023 14:08 24,6 C 25,0 C 20,0 C 76 % 1016,7 hPa 0,0 l/m 0 min 0 min 242 W/m 6,4 km/h (2 Bft) 100,00 %
15.08.2023 14:10 24,7 C 25,0 C 20,6 C 76 % 1016,8 hPa 0,0 l/m 0 min 0 min 274 W/m 6,4 km/h (2 Bft) 100,00 %
15.08.2023 14:12 24,7 C 25,6 C 20,0 C 75 % 1016,8 hPa 0,0 l/m 0 min 0 min 299 W/m 6,4 km/h (2 Bft) 100,00 %
15.08.2023 14:14 24,7 C 26,1 C 20,6 C 75 % 1016,8 hPa 0,0 l/m 0 min 0 min 303 W/m 9,7 km/h (2 Bft) 100,00 %
15.08.2023 14:16 24,7 C 25,6 C 20,6 C 75 % 1016,8 hPa 0,0 l/m 0 min 0 min 220 W/m 3,2 km/h (1 Bft) 100,00 %
15.08.2023 14:18 24,8 C 25,6 C 20,6 C 75 % 1016,8 hPa 0,0 l/m 0 min 0 min 203 W/m 6,4 km/h (2 Bft) 100,00 %
15.08.2023 14:20 24,8 C 25,0 C 20,6 C 75 % 1016,8 hPa 0,0 l/m 0 min 0 min 183 W/m 6,4 km/h (2 Bft) 97,83 %
15.08.2023 14:22 24,9 C 25,0 C 20,0 C 75 % 1016,8 hPa 0,0 l/m 0 min 0 min 182 W/m 6,4 km/h (2 Bft) 97,87 %
15.08.2023 14:24 24,9 C 24,4 C 20,0 C 75 % 1016,8 hPa 0,0 l/m 0 min 0 min 179 W/m 3,2 km/h (1 Bft) 100,00 %
15.08.2023 14:26 24,9 C 24,4 C 20,0 C 74 % 1016,8 hPa 0,0 l/m 0 min 0 min 181 W/m 6,4 km/h (2 Bft) 100,00 %
15.08.2023 14:28 24,9 C 24,4 C 20,0 C 74 % 1016,8 hPa 0,0 l/m 0 min 0 min 155 W/m 3,2 km/h (1 Bft) 100,00 %
15.08.2023 14:30 24,9 C 24,4 C 20,0 C 74 % 1016,8 hPa 0,0 l/m 0 min 0 min 166 W/m 3,2 km/h (1 Bft) 100,00 %
15.08.2023 14:32 24,9 C 24,4 C 20,0 C 74 % 1016,8 hPa 0,0 l/m 0 min 0 min 190 W/m 6,4 km/h (2 Bft) 97,83 %
15.08.2023 14:34 24,9 C 24,4 C 20,0 C 74 % 1016,8 hPa 0,0 l/m 0 min 0 min 204 W/m 6,4 km/h (2 Bft) 100,00 %
15.08.2023 14:36 24,9 C 25,0 C 20,0 C 75 % 1016,8 hPa 0,0 l/m 0 min 0 min 238 W/m 6,4 km/h (2 Bft) 97,87 %
15.08.2023 14:38 24,9 C 25,6 C 20,0 C 76 % 1016,7 hPa 0,0 l/m 0 min 0 min 304 W/m 9,7 km/h (2 Bft) 100,00 %
15.08.2023 14:40 25,0 C 27,2 C 20,6 C 76 % 1016,7 hPa 0,0 l/m 2 min 0 min 601 W/m 6,4 km/h (2 Bft) 100,00 %
15.08.2023 14:42 25,1 C 27,8 C 20,6 C 76 % 1016,8 hPa 0,0 l/m 2 min 0 min 698 W/m 6,4 km/h (2 Bft) 100,00 %
15.08.2023 14:44 25,1 C 27,2 C 20,6 C 75 % 1016,7 hPa 0,0 l/m 2 min 0 min 470 W/m 6,4 km/h (2 Bft) 100,00 %
15.08.2023 14:46 25,1 C 26,7 C 20,6 C 73 % 1016,8 hPa 0,0 l/m 0 min 0 min 242 W/m 12,9 km/h (3 Bft) 97,83 %
15.08.2023 14:48 25,1 C 26,1 C 20,6 C 72 % 1016,7 hPa 0,0 l/m 0 min 0 min 208 W/m 6,4 km/h (2 Bft) 100,00 %
15.08.2023 14:50 25,2 C 25,6 C 20,6 C 73 % 1016,7 hPa 0,0 l/m 0 min 0 min 229 W/m 6,4 km/h (2 Bft) 100,00 %
15.08.2023 14:52 25,2 C 25,6 C 20,6 C 72 % 1016,7 hPa 0,0 l/m 0 min 0 min 270 W/m 16,1 km/h (3 Bft) 100,00 %
15.08.2023 14:54 25,2 C 26,1 C 20,6 C 72 % 1016,7 hPa 0,0 l/m 0 min 0 min 336 W/m 12,9 km/h (3 Bft) 100,00 %
15.08.2023 14:56 25,2 C 26,7 C 21,1 C 72 % 1016,8 hPa 0,0 l/m 0 min 0 min 348 W/m 12,9 km/h (3 Bft) 100,00 %
15.08.2023 14:58 25,2 C 26,7 C 21,1 C 72 % 1016,7 hPa 0,0 l/m 2 min 0 min 386 W/m 12,9 km/h (3 Bft) 100,00 %
15.08.2023 15:00 25,3 C 26,1 C 21,1 C 72 % 1016,8 hPa 0,0 l/m 0 min 0 min 286 W/m 6,4 km/h (2 Bft) 97,83 %
15.08.2023 15:02 25,4 C 27,2 C 21,1 C 72 % 1016,8 hPa 0,0 l/m 2 min 0 min 396 W/m 6,4 km/h (2 Bft) 97,87 %
15.08.2023 15:04 25,4 C 27,2 C 21,1 C 71 % 1016,7 hPa 0,0 l/m 2 min 0 min 556 W/m 12,9 km/h (3 Bft) 97,87 %
15.08.2023 15:06 25,5 C 27,2 C 21,1 C 71 % 1016,7 hPa 0,0 l/m 2 min 0 min 588 W/m 6,4 km/h (2 Bft) 97,87 %
15.08.2023 15:08 25,6 C 26,7 C 21,1 C 71 % 1016,7 hPa 0,0 l/m 2 min 0 min 372 W/m 6,4 km/h (2 Bft) 97,87 %
15.08.2023 15:10 25,6 C 26,7 C 21,1 C 71 % 1016,6 hPa 0,0 l/m 2 min 0 min 382 W/m 12,9 km/h (3 Bft) 97,87 %
15.08.2023 15:12 25,7 C 26,7 C 21,1 C 71 % 1016,6 hPa 0,0 l/m 0 min 0 min 361 W/m 12,9 km/h (3 Bft) 97,83 %
15.08.2023 15:14 25,7 C 26,7 C 21,1 C 71 % 1016,6 hPa 0,0 l/m 0 min 0 min 351 W/m 6,4 km/h (2 Bft) 93,62 %
15.08.2023 15:16 25,7 C 26,7 C 21,1 C 71 % 1016,6 hPa 0,0 l/m 2 min 0 min 374 W/m 6,4 km/h (2 Bft) 97,87 %
15.08.2023 15:18 25,8 C 26,7 C 21,1 C 70 % 1016,6 hPa 0,0 l/m 2 min 0 min 392 W/m 16,1 km/h (3 Bft) 95,74 %
15.08.2023 15:20 25,8 C 26,1 C 21,1 C 70 % 1016,6 hPa 0,0 l/m 2 min 0 min 418 W/m 12,9 km/h (3 Bft) 97,87 %
15.08.2023 15:22 25,8 C 26,1 C 21,1 C 71 % 1016,6 hPa 0,0 l/m 2 min 0 min 357 W/m 6,4 km/h (2 Bft) 95,74 %
15.08.2023 15:24 25,8 C 26,1 C 21,1 C 71 % 1016,6 hPa 0,0 l/m 0 min 0 min 337 W/m 6,4 km/h (2 Bft) 95,74 %
15.08.2023 15:26 25,8 C 26,1 C 21,1 C 71 % 1016,6 hPa 0,0 l/m 2 min 0 min 369 W/m 6,4 km/h (2 Bft) 95,65 %
15.08.2023 15:28 25,8 C 26,7 C 21,1 C 71 % 1016,5 hPa 0,0 l/m 2 min 0 min 444 W/m 9,7 km/h (2 Bft) 93,62 %
15.08.2023 15:30 25,9 C 26,7 C 21,1 C 71 % 1016,6 hPa 0,0 l/m 2 min 0 min 408 W/m 6,4 km/h (2 Bft) 95,74 %
15.08.2023 15:32 25,9 C 26,7 C 21,1 C 71 % 1016,6 hPa 0,0 l/m 2 min 0 min 376 W/m 12,9 km/h (3 Bft) 93,62 %
15.08.2023 15:34 25,9 C 26,7 C 21,7 C 70 % 1016,6 hPa 0,0 l/m 2 min 0 min 371 W/m 6,4 km/h (2 Bft) 89,36 %
15.08.2023 15:36 25,9 C 26,7 C 21,7 C 69 % 1016,6 hPa 0,0 l/m 2 min 0 min 357 W/m 6,4 km/h (2 Bft) 93,62 %
15.08.2023 15:38 25,9 C 26,7 C 21,7 C 69 % 1016,6 hPa 0,0 l/m 2 min 0 min 394 W/m 9,7 km/h (2 Bft) 93,62 %
15.08.2023 15:40 25,9 C 27,2 C 21,7 C 70 % 1016,6 hPa 0,0 l/m 2 min 0 min 437 W/m 19,3 km/h (3 Bft) 95,65 %
15.08.2023 15:42 26,0 C 27,2 C 21,7 C 70 % 1016,6 hPa 0,0 l/m 2 min 0 min 570 W/m 6,4 km/h (2 Bft) 93,62 %
15.08.2023 15:44 26,1 C 27,8 C 21,7 C 70 % 1016,6 hPa 0,0 l/m 2 min 0 min 557 W/m 6,4 km/h (2 Bft) 95,74 %
15.08.2023 15:46 26,2 C 27,8 C 21,7 C 70 % 1016,6 hPa 0,0 l/m 2 min 0 min 508 W/m 6,4 km/h (2 Bft) 95,74 %
15.08.2023 15:48 26,3 C 28,3 C 21,7 C 70 % 1016,6 hPa 0,0 l/m 2 min 0 min 554 W/m 6,4 km/h (2 Bft) 95,74 %
15.08.2023 15:50 26,3 C 28,3 C 21,7 C 69 % 1016,6 hPa 0,0 l/m 2 min 0 min 557 W/m 6,4 km/h (2 Bft) 93,62 %
15.08.2023 15:52 26,4 C 28,9 C 22,2 C 69 % 1016,6 hPa 0,0 l/m 2 min 0 min 602 W/m 12,9 km/h (3 Bft) 95,65 %
15.08.2023 15:54 26,5 C 28,9 C 22,2 C 68 % 1016,6 hPa 0,0 l/m 2 min 0 min 551 W/m 12,9 km/h (3 Bft) 95,74 %
15.08.2023 15:56 26,6 C 28,9 C 21,7 C 68 % 1016,6 hPa 0,0 l/m 2 min 0 min 607 W/m 6,4 km/h (2 Bft) 93,62 %
15.08.2023 15:58 26,6 C 28,3 C 21,7 C 67 % 1016,6 hPa 0,0 l/m 2 min 0 min 473 W/m 12,9 km/h (3 Bft) 95,74 %
15.08.2023 16:00 26,6 C 27,2 C 21,7 C 66 % 1016,6 hPa 0,0 l/m 2 min 0 min 363 W/m 12,9 km/h (3 Bft) 93,62 %
15.08.2023 16:02 26,6 C 27,2 C 21,7 C 67 % 1016,6 hPa 0,0 l/m 2 min 0 min 333 W/m 6,4 km/h (2 Bft) 95,74 %
15.08.2023 16:04 26,6 C 27,2 C 21,7 C 67 % 1016,6 hPa 0,0 l/m 0 min 0 min 329 W/m 3,2 km/h (1 Bft) 95,35 %
15.08.2023 16:06 26,6 C 27,2 C 21,7 C 67 % 1016,6 hPa 0,0 l/m 2 min 0 min 380 W/m 9,7 km/h (2 Bft) 95,74 %
15.08.2023 16:08 26,6 C 27,8 C 21,7 C 67 % 1016,6 hPa 0,0 l/m 2 min 0 min 463 W/m 3,2 km/h (1 Bft) 95,74 %
15.08.2023 16:10 26,6 C 27,8 C 21,7 C 67 % 1016,6 hPa 0,0 l/m 2 min 0 min 502 W/m 6,4 km/h (2 Bft) 95,74 %
15.08.2023 16:12 26,7 C 27,8 C 21,7 C 67 % 1016,5 hPa 0,0 l/m 2 min 0 min 413 W/m 6,4 km/h (2 Bft) 95,74 %
15.08.2023 16:14 26,7 C 27,2 C 21,7 C 67 % 1016,5 hPa 0,0 l/m 2 min 0 min 406 W/m 3,2 km/h (1 Bft) 95,65 %
15.08.2023 16:16 26,7 C 27,2 C 21,7 C 67 % 1016,5 hPa 0,0 l/m 2 min 0 min 428 W/m 6,4 km/h (2 Bft) 100,00 %
15.08.2023 16:18 26,7 C 27,2 C 21,7 C 67 % 1016,6 hPa 0,0 l/m 2 min 0 min 474 W/m 6,4 km/h (2 Bft) 100,00 %
15.08.2023 16:20 26,7 C 27,8 C 21,7 C 67 % 1016,5 hPa 0,0 l/m 2 min 0 min 608 W/m 6,4 km/h (2 Bft) 97,87 %
15.08.2023 16:22 26,7 C 27,8 C 21,7 C 68 % 1016,5 hPa 0,0 l/m 2 min 0 min 770 W/m 3,2 km/h (1 Bft) 100,00 %
15.08.2023 16:24 26,8 C 27,8 C 21,7 C 68 % 1016,6 hPa 0,0 l/m 2 min 0 min 790 W/m 12,9 km/h (3 Bft) 100,00 %
15.08.2023 16:26 26,9 C 28,3 C 22,2 C 67 % 1016,6 hPa 0,0 l/m 2 min 0 min 779 W/m 9,7 km/h (2 Bft) 100,00 %
15.08.2023 16:28 26,9 C 27,8 C 21,7 C 66 % 1016,6 hPa 0,0 l/m 2 min 0 min 754 W/m 9,7 km/h (2 Bft) 100,00 %
15.08.2023 16:30 27,0 C 28,3 C 22,2 C 68 % 1016,5 hPa 0,0 l/m 2 min 0 min 729 W/m 3,2 km/h (1 Bft) 100,00 %
15.08.2023 16:32 27,1 C 28,3 C 22,2 C 68 % 1016,5 hPa 0,0 l/m 2 min 0 min 702 W/m 6,4 km/h (2 Bft) 97,87 %
15.08.2023 16:34 27,2 C 27,8 C 22,2 C 67 % 1016,5 hPa 0,0 l/m 2 min 0 min 703 W/m 12,9 km/h (3 Bft) 100,00 %
15.08.2023 16:36 27,3 C 28,3 C 22,2 C 66 % 1016,5 hPa 0,0 l/m 2 min 0 min 697 W/m 6,4 km/h (2 Bft) 100,00 %
15.08.2023 16:38 27,3 C 27,8 C 22,2 C 66 % 1016,4 hPa 0,0 l/m 2 min 0 min 519 W/m 9,7 km/h (2 Bft) 100,00 %
15.08.2023 16:40 27,3 C 27,2 C 22,2 C 66 % 1016,4 hPa 0,0 l/m 0 min 0 min 149 W/m 6,4 km/h (2 Bft) 100,00 %
15.08.2023 16:42 27,2 C 27,2 C 21,7 C 65 % 1016,4 hPa 0,0 l/m 0 min 0 min 239 W/m 6,4 km/h (2 Bft) 100,00 %
15.08.2023 16:44 27,1 C 26,7 C 21,7 C 65 % 1016,5 hPa 0,0 l/m 0 min 0 min 215 W/m 12,9 km/h (3 Bft) 100,00 %
15.08.2023 16:46 27,1 C 27,2 C 21,7 C 65 % 1016,5 hPa 0,0 l/m 2 min 0 min 637 W/m 6,4 km/h (2 Bft) 100,00 %
15.08.2023 16:48 27,1 C 27,8 C 21,7 C 66 % 1016,5 hPa 0,0 l/m 2 min 0 min 653 W/m 6,4 km/h (2 Bft) 100,00 %
15.08.2023 16:50 27,2 C 27,8 C 21,7 C 66 % 1016,5 hPa 0,0 l/m 2 min 0 min 630 W/m 6,4 km/h (2 Bft) 100,00 %
15.08.2023 16:52 27,2 C 27,8 C 21,7 C 66 % 1016,5 hPa 0,0 l/m 2 min 0 min 625 W/m 3,2 km/h (1 Bft) 100,00 %
15.08.2023 16:54 27,2 C 28,3 C 21,7 C 67 % 1016,5 hPa 0,0 l/m 2 min 0 min 616 W/m 6,4 km/h (2 Bft) 100,00 %
15.08.2023 16:56 27,3 C 28,9 C 21,7 C 67 % 1016,5 hPa 0,0 l/m 2 min 0 min 594 W/m 6,4 km/h (2 Bft) 100,00 %
15.08.2023 16:58 27,4 C 29,4 C 22,2 C 67 % 1016,4 hPa 0,0 l/m 2 min 0 min 595 W/m 6,4 km/h (2 Bft) 100,00 %
15.08.2023 17:00 27,4 C 29,4 C 22,2 C 67 % 1016,4 hPa 0,0 l/m 2 min 0 min 593 W/m 12,9 km/h (3 Bft) 97,87 %
15.08.2023 17:02 27,6 C 29,4 C 22,2 C 67 % 1016,4 hPa 0,0 l/m 2 min 0 min 596 W/m 12,9 km/h (3 Bft) 97,83 %
15.08.2023 17:04 27,6 C 29,4 C 22,2 C 66 % 1016,5 hPa 0,0 l/m 2 min 0 min 589 W/m 6,4 km/h (2 Bft) 97,87 %
15.08.2023 17:06 27,7 C 30,0 C 22,2 C 66 % 1016,4 hPa 0,0 l/m 2 min 0 min 578 W/m 9,7 km/h (2 Bft) 97,87 %
15.08.2023 17:08 27,7 C 30,6 C 22,2 C 65 % 1016,4 hPa 0,0 l/m 2 min 0 min 568 W/m 6,4 km/h (2 Bft) 97,87 %
15.08.2023 17:10 27,7 C 30,0 C 22,2 C 65 % 1016,4 hPa 0,0 l/m 2 min 0 min 564 W/m 16,1 km/h (3 Bft) 97,87 %
15.08.2023 17:12 27,7 C 30,6 C 22,2 C 64 % 1016,4 hPa 0,0 l/m 2 min 0 min 559 W/m 9,7 km/h (2 Bft) 97,87 %
15.08.2023 17:14 27,7 C 31,1 C 22,2 C 65 % 1016,4 hPa 0,0 l/m 2 min 0 min 555 W/m 6,4 km/h (2 Bft) 97,87 %
15.08.2023 17:16 27,8 C 31,7 C 22,2 C 66 % 1016,4 hPa 0,0 l/m 2 min 0 min 555 W/m 9,7 km/h (2 Bft) 97,83 %
15.08.2023 17:18 27,8 C 32,2 C 22,2 C 65 % 1016,4 hPa 0,0 l/m 2 min 0 min 551 W/m 3,2 km/h (1 Bft) 97,87 %
15.08.2023 17:20 27,8 C 32,2 C 22,2 C 65 % 1016,4 hPa 0,0 l/m 2 min 0 min 549 W/m 9,7 km/h (2 Bft) 97,87 %
15.08.2023 17:22 27,8 C 32,2 C 22,2 C 65 % 1016,4 hPa 0,0 l/m 2 min 0 min 546 W/m 6,4 km/h (2 Bft) 97,87 %
15.08.2023 17:24 27,8 C 31,7 C 22,2 C 65 % 1016,3 hPa 0,0 l/m 2 min 0 min 554 W/m 6,4 km/h (2 Bft) 97,87 %
15.08.2023 17:26 27,8 C 32,2 C 22,2 C 65 % 1016,4 hPa 0,0 l/m 2 min 0 min 561 W/m 6,4 km/h (2 Bft) 97,87 %
15.08.2023 17:28 27,8 C 31,1 C 22,2 C 65 % 1016,4 hPa 0,0 l/m 2 min 0 min 357 W/m 6,4 km/h (2 Bft) 97,83 %
15.08.2023 17:30 27,7 C 31,1 C 22,2 C 64 % 1016,4 hPa 0,0 l/m 2 min 0 min 431 W/m 9,7 km/h (2 Bft) 100,00 %
15.08.2023 17:32 27,7 C 31,7 C 22,2 C 65 % 1016,4 hPa 0,0 l/m 2 min 0 min 520 W/m 9,7 km/h (2 Bft) 100,00 %
15.08.2023 17:34 27,7 C 31,7 C 22,8 C 65 % 1016,4 hPa 0,0 l/m 2 min 0 min 508 W/m 9,7 km/h (2 Bft) 100,00 %
15.08.2023 17:36 27,7 C 31,1 C 22,8 C 65 % 1016,5 hPa 0,0 l/m 2 min 0 min 505 W/m 9,7 km/h (2 Bft) 97,87 %
15.08.2023 17:38 27,7 C 31,7 C 22,2 C 64 % 1016,5 hPa 0,0 l/m 2 min 0 min 503 W/m 3,2 km/h (1 Bft) 100,00 %
15.08.2023 17:40 27,7 C 31,7 C 22,8 C 64 % 1016,4 hPa 0,0 l/m 2 min 0 min 496 W/m 6,4 km/h (2 Bft) 100,00 %
15.08.2023 17:42 27,8 C 32,2 C 22,8 C 64 % 1016,4 hPa 0,0 l/m 2 min 0 min 495 W/m 3,2 km/h (1 Bft) 100,00 %
15.08.2023 17:44 27,9 C 32,2 C 22,8 C 64 % 1016,4 hPa 0,0 l/m 2 min 0 min 503 W/m 9,7 km/h (2 Bft) 97,87 %
15.08.2023 17:46 27,9 C 32,8 C 22,8 C 65 % 1016,4 hPa 0,0 l/m 2 min 0 min 498 W/m 6,4 km/h (2 Bft) 100,00 %
15.08.2023 17:48 28,0 C 32,2 C 22,8 C 64 % 1016,4 hPa 0,0 l/m 2 min 0 min 487 W/m 12,9 km/h (3 Bft) 100,00 %
15.08.2023 17:50 27,9 C 31,7 C 22,8 C 64 % 1016,5 hPa 0,0 l/m 2 min 0 min 482 W/m 9,7 km/h (2 Bft) 100,00 %
15.08.2023 17:52 27,9 C 31,7 C 22,8 C 64 % 1016,5 hPa 0,0 l/m 2 min 0 min 459 W/m 9,7 km/h (2 Bft) 98,39 %
15.08.2023 17:54 27,8 C 30,6 C 22,8 C 65 % 1016,4 hPa 0,0 l/m 2 min 0 min 381 W/m 3,2 km/h (1 Bft) 97,83 %
15.08.2023 17:56 27,8 C 29,4 C 22,8 C 65 % 1016,5 hPa 0,0 l/m 0 min 0 min 166 W/m 9,7 km/h (2 Bft) 100,00 %
15.08.2023 17:58 27,7 C 28,3 C 22,2 C 64 % 1016,6 hPa 0,0 l/m 0 min 0 min 102 W/m 6,4 km/h (2 Bft) 100,00 %
15.08.2023 18:00 27,6 C 27,8 C 22,2 C 65 % 1016,6 hPa 0,0 l/m 0 min 0 min 111 W/m 3,2 km/h (1 Bft) 97,87 %
15.08.2023 18:02 27,4 C 27,8 C 22,2 C 65 % 1016,6 hPa 0,0 l/m 0 min 0 min 206 W/m 3,2 km/h (1 Bft) 100,00 %
15.08.2023 18:04 27,3 C 28,9 C 22,2 C 66 % 1016,6 hPa 0,0 l/m 2 min 0 min 425 W/m 6,4 km/h (2 Bft) 95,74 %
15.08.2023 18:07 27,3 C 30,6 C 22,8 C 66 % 1016,6 hPa 0,0 l/m 3 min 0 min 443 W/m 9,7 km/h (2 Bft) 100,00 %
15.08.2023 18:08 27,3 C 31,1 C 22,8 C 66 % 1016,6 hPa 0,0 l/m 1 min 0 min 429 W/m 12,9 km/h (3 Bft) 100,00 %
15.08.2023 18:12 27,4 C 31,1 C 22,8 C 66 % 1016,7 hPa 0,0 l/m 4 min 0 min 406 W/m 6,4 km/h (2 Bft) 100,00 %
15.08.2023 18:14 27,4 C 31,7 C 22,8 C 66 % 1016,6 hPa 0,0 l/m 2 min 0 min 408 W/m 12,9 km/h (3 Bft) 100,00 %
15.08.2023 18:16 27,4 C 31,1 C 22,8 C 65 % 1016,6 hPa 0,0 l/m 2 min 0 min 395 W/m 6,4 km/h (2 Bft) 97,83 %
15.08.2023 18:18 27,5 C 31,1 C 22,8 C 65 % 1016,6 hPa 0,0 l/m 2 min 0 min 405 W/m 9,7 km/h (2 Bft) 97,87 %
15.08.2023 18:20 27,5 C 31,1 C 22,8 C 65 % 1016,6 hPa 0,0 l/m 2 min 0 min 414 W/m 9,7 km/h (2 Bft) 95,74 %
15.08.2023 18:22 27,6 C 31,1 C 22,8 C 66 % 1016,7 hPa 0,0 l/m 2 min 0 min 420 W/m 6,4 km/h (2 Bft) 93,62 %
15.08.2023 18:24 27,6 C 31,1 C 22,8 C 65 % 1016,7 hPa 0,0 l/m 2 min 0 min 407 W/m 6,4 km/h (2 Bft) 95,74 %
15.08.2023 18:26 27,6 C 31,1 C 22,8 C 65 % 1016,7 hPa 0,0 l/m 2 min 0 min 403 W/m 9,7 km/h (2 Bft) 95,74 %
15.08.2023 18:28 27,6 C 31,1 C 22,8 C 65 % 1016,6 hPa 0,0 l/m 2 min 0 min 374 W/m 9,7 km/h (2 Bft) 95,74 %
15.08.2023 18:30 27,6 C 31,1 C 22,8 C 65 % 1016,6 hPa 0,0 l/m 2 min 0 min 399 W/m 9,7 km/h (2 Bft) 95,65 %
15.08.2023 18:32 27,6 C 30,0 C 22,8 C 65 % 1016,6 hPa 0,0 l/m 2 min 0 min 278 W/m 6,4 km/h (2 Bft) 95,74 %
15.08.2023 18:34 27,7 C 29,4 C 22,8 C 65 % 1016,6 hPa 0,0 l/m 0 min 0 min 121 W/m 3,2 km/h (1 Bft) 95,74 %
15.08.2023 18:36 27,7 C 29,4 C 22,2 C 65 % 1016,7 hPa 0,0 l/m 2 min 0 min 292 W/m 6,4 km/h (2 Bft) 95,74 %
15.08.2023 18:38 27,6 C 30,0 C 22,2 C 65 % 1016,7 hPa 0,0 l/m 2 min 0 min 320 W/m 9,7 km/h (2 Bft) 95,74 %
15.08.2023 18:40 27,6 C 29,4 C 22,2 C 65 % 1016,7 hPa 0,0 l/m 2 min 0 min 219 W/m 6,4 km/h (2 Bft) 93,62 %
15.08.2023 18:42 27,6 C 28,3 C 22,2 C 65 % 1016,7 hPa 0,0 l/m 0 min 0 min 108 W/m 6,4 km/h (2 Bft) 93,48 %
15.08.2023 18:44 27,6 C 28,3 C 22,2 C 65 % 1016,7 hPa 0,0 l/m 0 min 0 min 112 W/m 6,4 km/h (2 Bft) 89,36 %
15.08.2023 18:46 27,4 C 28,3 C 21,7 C 65 % 1016,7 hPa 0,0 l/m 2 min 0 min 290 W/m 3,2 km/h (1 Bft) 93,62 %
15.08.2023 18:48 27,3 C 28,9 C 21,7 C 65 % 1016,7 hPa 0,0 l/m 2 min 0 min 284 W/m 3,2 km/h (1 Bft) 93,62 %
15.08.2023 18:50 27,2 C 28,3 C 21,7 C 65 % 1016,7 hPa 0,0 l/m 2 min 0 min 286 W/m 6,4 km/h (2 Bft) 93,62 %
15.08.2023 18:52 27,2 C 27,2 C 21,7 C 65 % 1016,7 hPa 0,0 l/m 2 min 0 min 278 W/m 6,4 km/h (2 Bft) 91,49 %
15.08.2023 18:54 27,1 C 27,2 C 21,7 C 65 % 1016,7 hPa 0,0 l/m 2 min 0 min 270 W/m 6,4 km/h (2 Bft) 93,62 %
15.08.2023 18:56 27,0 C 26,7 C 21,7 C 65 % 1016,7 hPa 0,0 l/m 2 min 0 min 262 W/m 3,2 km/h (1 Bft) 93,48 %
15.08.2023 18:58 26,9 C 26,1 C 21,7 C 64 % 1016,7 hPa 0,0 l/m 2 min 0 min 251 W/m 9,7 km/h (2 Bft) 91,49 %
15.08.2023 19:00 26,9 C 26,1 C 21,7 C 64 % 1016,7 hPa 0,0 l/m 2 min 0 min 242 W/m 6,4 km/h (2 Bft) 93,62 %
15.08.2023 19:02 26,8 C 26,1 C 21,7 C 64 % 1016,7 hPa 0,0 l/m 2 min 0 min 229 W/m 9,7 km/h (2 Bft) 93,62 %
15.08.2023 19:04 26,8 C 26,1 C 21,7 C 64 % 1016,8 hPa 0,0 l/m 2 min 0 min 218 W/m 3,2 km/h (1 Bft) 93,75 %
15.08.2023 19:06 26,8 C 26,1 C 21,7 C 64 % 1016,8 hPa 0,0 l/m 2 min 0 min 190 W/m 3,2 km/h (1 Bft) 93,10 %
15.08.2023 19:08 26,7 C 25,6 C 21,7 C 64 % 1016,8 hPa 0,0 l/m 0 min 0 min 93 W/m 6,4 km/h (2 Bft) 100,00 %
15.08.2023 19:10 26,7 C 25,6 C 21,7 C 64 % 1016,7 hPa 0,0 l/m 0 min 0 min 51 W/m 3,2 km/h (1 Bft) 95,74 %
15.08.2023 19:12 26,6 C 25,6 C 21,1 C 64 % 1016,7 hPa 0,0 l/m 0 min 0 min 54 W/m 3,2 km/h (1 Bft) 97,87 %
15.08.2023 19:14 26,6 C 25,6 C 21,1 C 65 % 1016,7 hPa 0,0 l/m 0 min 0 min 53 W/m 6,4 km/h (2 Bft) 93,62 %
15.08.2023 19:16 26,5 C 25,6 C 21,1 C 65 % 1016,7 hPa 0,0 l/m 0 min 0 min 51 W/m 3,2 km/h (1 Bft) 100,00 %
15.08.2023 19:18 26,4 C 25,6 C 21,1 C 65 % 1016,7 hPa 0,0 l/m 0 min 0 min 49 W/m 6,4 km/h (2 Bft) 97,87 %
15.08.2023 19:20 26,4 C 25,6 C 21,1 C 64 % 1016,7 hPa 0,0 l/m 0 min 0 min 49 W/m 9,7 km/h (2 Bft) 97,87 %
15.08.2023 19:22 26,4 C 25,0 C 21,1 C 65 % 1016,7 hPa 0,0 l/m 0 min 0 min 47 W/m 6,4 km/h (2 Bft) 100,00 %
15.08.2023 19:24 26,3 C 25,0 C 21,1 C 65 % 1016,7 hPa 0,0 l/m 0 min 0 min 47 W/m 3,2 km/h (1 Bft) 100,00 %
15.08.2023 19:26 26,3 C 25,0 C 21,1 C 65 % 1016,7 hPa 0,0 l/m 0 min 0 min 46 W/m 6,4 km/h (2 Bft) 97,87 %
15.08.2023 19:28 26,2 C 25,0 C 21,1 C 65 % 1016,8 hPa 0,0 l/m 0 min 0 min 45 W/m 6,4 km/h (2 Bft) 100,00 %
15.08.2023 19:30 26,2 C 25,0 C 21,1 C 64 % 1016,8 hPa 0,0 l/m 0 min 0 min 43 W/m 3,2 km/h (1 Bft) 100,00 %
15.08.2023 19:32 26,2 C 25,0 C 21,1 C 64 % 1016,8 hPa 0,0 l/m 0 min 0 min 42 W/m 0,0 km/h (0 Bft) 100,00 %
15.08.2023 19:34 26,1 C 25,0 C 20,6 C 66 % 1016,8 hPa 0,0 l/m 0 min 0 min 40 W/m 6,4 km/h (2 Bft) 97,87 %
15.08.2023 19:36 26,1 C 25,0 C 20,6 C 65 % 1016,8 hPa 0,0 l/m 0 min 0 min 39 W/m 6,4 km/h (2 Bft) 97,83 %
15.08.2023 19:38 26,1 C 25,0 C 20,6 C 65 % 1016,8 hPa 0,0 l/m 0 min 0 min 39 W/m 3,2 km/h (1 Bft) 100,00 %
15.08.2023 19:40 26,0 C 25,0 C 20,6 C 65 % 1016,8 hPa 0,0 l/m 0 min 0 min 37 W/m 12,9 km/h (3 Bft) 100,00 %
15.08.2023 19:42 25,9 C 25,0 C 20,6 C 65 % 1016,8 hPa 0,0 l/m 0 min 0 min 36 W/m 3,2 km/h (1 Bft) 100,00 %
15.08.2023 19:44 25,9 C 25,0 C 20,6 C 65 % 1016,8 hPa 0,0 l/m 0 min 0 min 35 W/m 3,2 km/h (1 Bft) 100,00 %
15.08.2023 19:46 25,9 C 25,0 C 20,6 C 67 % 1016,8 hPa 0,0 l/m 0 min 0 min 33 W/m 3,2 km/h (1 Bft) 97,87 %
15.08.2023 19:48 25,9 C 24,4 C 20,6 C 67 % 1016,8 hPa 0,0 l/m 0 min 0 min 33 W/m 0,0 km/h (0 Bft) 100,00 %
15.08.2023 19:50 25,8 C 24,4 C 20,6 C 67 % 1016,9 hPa 0,0 l/m 0 min 0 min 32 W/m 0,0 km/h (0 Bft) 100,00 %
15.08.2023 19:52 25,8 C 24,4 C 20,0 C 69 % 1016,9 hPa 0,0 l/m 0 min 0 min 31 W/m 3,2 km/h (1 Bft) 100,00 %
15.08.2023 19:54 25,8 C 24,4 C 20,0 C 68 % 1016,9 hPa 0,0 l/m 0 min 0 min 30 W/m 6,4 km/h (2 Bft) 100,00 %
15.08.2023 19:56 25,8 C 24,4 C 20,0 C 68 % 1016,9 hPa 0,0 l/m 0 min 0 min 30 W/m 3,2 km/h (1 Bft) 100,00 %
15.08.2023 19:58 25,7 C 23,9 C 20,0 C 68 % 1016,9 hPa 0,0 l/m 0 min 0 min 28 W/m 3,2 km/h (1 Bft) 100,00 %
15.08.2023 20:00 25,7 C 23,9 C 20,0 C 68 % 1016,9 hPa 0,0 l/m 0 min 0 min 28 W/m 6,4 km/h (2 Bft) 100,00 %
15.08.2023 20:02 25,7 C 23,9 C 20,0 C 68 % 1017,0 hPa 0,0 l/m 0 min 0 min 26 W/m 0,0 km/h (0 Bft) 97,83 %
15.08.2023 20:04 25,6 C 23,9 C 20,0 C 68 % 1017,0 hPa 0,0 l/m 0 min 0 min 26 W/m 0,0 km/h (0 Bft) 100,00 %
15.08.2023 20:06 25,6 C 23,9 C 20,0 C 69 % 1017,0 hPa 0,0 l/m 0 min 0 min 25 W/m 0,0 km/h (0 Bft) 100,00 %
15.08.2023 20:08 25,6 C 23,9 C 19,4 C 69 % 1017,0 hPa 0,0 l/m 0 min 0 min 24 W/m 0,0 km/h (0 Bft) 100,00 %
15.08.2023 20:10 25,5 C 23,3 C 19,4 C 70 % 1017,0 hPa 0,0 l/m 0 min 0 min 22 W/m 0,0 km/h (0 Bft) 100,00 %
15.08.2023 20:12 25,4 C 23,3 C 19,4 C 70 % 1017,0 hPa 0,0 l/m 0 min 0 min 21 W/m 3,2 km/h (1 Bft) 100,00 %
15.08.2023 20:14 25,3 C 23,3 C 19,4 C 70 % 1017,1 hPa 0,0 l/m 0 min 0 min 21 W/m 0,0 km/h (0 Bft) 100,00 %
15.08.2023 20:16 25,3 C 23,3 C 19,4 C 70 % 1017,0 hPa 0,0 l/m 0 min 0 min 21 W/m 0,0 km/h (0 Bft) 100,00 %
15.08.2023 20:18 25,2 C 23,3 C 19,4 C 70 % 1017,0 hPa 0,0 l/m 0 min 0 min 21 W/m 0,0 km/h (0 Bft) 100,00 %
15.08.2023 20:20 25,2 C 23,3 C 19,4 C 70 % 1017,0 hPa 0,0 l/m 0 min 0 min 19 W/m 0,0 km/h (0 Bft) 100,00 %
15.08.2023 20:22 25,2 C 23,3 C 18,9 C 71 % 1017,1 hPa 0,0 l/m 0 min 0 min 19 W/m 0,0 km/h (0 Bft) 100,00 %
15.08.2023 20:24 25,2 C 22,8 C 18,9 C 72 % 1017,1 hPa 0,0 l/m 0 min 0 min 18 W/m 0,0 km/h (0 Bft) 100,00 %
15.08.2023 20:26 25,2 C 22,8 C 18,9 C 73 % 1017,1 hPa 0,0 l/m 0 min 0 min 18 W/m 0,0 km/h (0 Bft) 100,00 %
15.08.2023 20:28 25,2 C 22,8 C 18,9 C 74 % 1017,1 hPa 0,0 l/m 0 min 0 min 18 W/m 0,0 km/h (0 Bft) 100,00 %
15.08.2023 20:30 25,1 C 22,8 C 18,9 C 74 % 1017,2 hPa 0,0 l/m 0 min 0 min 18 W/m 0,0 km/h (0 Bft) 100,00 %
15.08.2023 20:32 25,0 C 22,8 C 18,3 C 74 % 1017,2 hPa 0,0 l/m 0 min 0 min 16 W/m 0,0 km/h (0 Bft) 100,00 %
15.08.2023 20:34 24,9 C 22,8 C 18,3 C 74 % 1017,2 hPa 0,0 l/m 0 min 0 min 15 W/m 0,0 km/h (0 Bft) 100,00 %
15.08.2023 20:36 24,9 C 22,8 C 18,3 C 75 % 1017,1 hPa 0,0 l/m 0 min 0 min 14 W/m 0,0 km/h (0 Bft) 97,87 %
15.08.2023 20:38 24,8 C 22,2 C 18,3 C 75 % 1017,2 hPa 0,0 l/m 0 min 0 min 13 W/m 0,0 km/h (0 Bft) 100,00 %
15.08.2023 20:40 24,8 C 22,2 C 18,3 C 75 % 1017,2 hPa 0,0 l/m 0 min 0 min 12 W/m 0,0 km/h (0 Bft) 97,87 %
15.08.2023 20:42 24,7 C 22,2 C 18,3 C 76 % 1017,3 hPa 0,0 l/m 0 min 0 min 12 W/m 0,0 km/h (0 Bft) 97,83 %
15.08.2023 20:44 24,7 C 22,8 C 18,3 C 76 % 1017,3 hPa 0,0 l/m 0 min 0 min 12 W/m 6,4 km/h (2 Bft) 95,74 %
15.08.2023 20:46 24,6 C 22,8 C 18,3 C 74 % 1017,3 hPa 0,0 l/m 0 min 0 min 11 W/m 6,4 km/h (2 Bft) 97,87 %
15.08.2023 20:48 24,4 C 22,8 C 18,9 C 73 % 1017,4 hPa 0,0 l/m 0 min 0 min 10 W/m 3,2 km/h (1 Bft) 95,74 %
15.08.2023 20:50 24,4 C 22,8 C 18,9 C 73 % 1017,5 hPa 0,0 l/m 0 min 0 min 7 W/m 3,2 km/h (1 Bft) 97,87 %
15.08.2023 20:52 24,3 C 22,8 C 18,9 C 73 % 1017,5 hPa 0,0 l/m 0 min 0 min 7 W/m 6,4 km/h (2 Bft) 97,87 %
15.08.2023 20:54 24,3 C 22,8 C 18,9 C 73 % 1017,6 hPa 0,0 l/m 0 min 0 min 7 W/m 9,7 km/h (2 Bft) 97,87 %
15.08.2023 20:56 24,2 C 22,8 C 18,9 C 74 % 1017,6 hPa 0,0 l/m 0 min 0 min 6 W/m 6,4 km/h (2 Bft) 93,48 %
15.08.2023 20:58 24,1 C 22,8 C 18,9 C 74 % 1017,7 hPa 0,0 l/m 0 min 0 min 5 W/m 9,7 km/h (2 Bft) 93,62 %
15.08.2023 21:00 24,1 C 22,8 C 18,9 C 75 % 1017,7 hPa 0,0 l/m 0 min 0 min 5 W/m 9,7 km/h (2 Bft) 95,74 %
15.08.2023 21:02 23,9 C 22,8 C 18,9 C 76 % 1017,7 hPa 0,0 l/m 0 min 0 min 5 W/m 6,4 km/h (2 Bft) 95,74 %
15.08.2023 21:04 23,9 C 22,8 C 18,3 C 76 % 1017,8 hPa 0,0 l/m 0 min 0 min 0 W/m 6,4 km/h (2 Bft) 95,74 %
15.08.2023 21:06 23,8 C 22,8 C 18,3 C 77 % 1017,8 hPa 0,0 l/m 0 min 0 min 0 W/m 6,4 km/h (2 Bft) 93,62 %
15.08.2023 21:08 23,7 C 22,8 C 18,3 C 77 % 1017,8 hPa 0,0 l/m 0 min 0 min 0 W/m 6,4 km/h (2 Bft) 95,74 %
15.08.2023 21:10 23,6 C 22,2 C 18,3 C 78 % 1017,9 hPa 0,0 l/m 0 min 0 min 0 W/m 6,4 km/h (2 Bft) 95,65 %
15.08.2023 21:12 23,6 C 22,2 C 18,3 C 78 % 1017,9 hPa 0,0 l/m 0 min 0 min 0 W/m 6,4 km/h (2 Bft) 97,87 %
15.08.2023 21:14 23,5 C 22,2 C 18,3 C 78 % 1018,0 hPa 0,0 l/m 0 min 0 min 0 W/m 12,9 km/h (3 Bft) 93,62 %
15.08.2023 21:16 23,4 C 22,2 C 18,3 C 78 % 1017,9 hPa 0,0 l/m 0 min 0 min 0 W/m 9,7 km/h (2 Bft) 97,87 %
15.08.2023 21:18 23,4 C 22,2 C 18,3 C 78 % 1017,9 hPa 0,0 l/m 0 min 0 min 0 W/m 6,4 km/h (2 Bft) 97,87 %
15.08.2023 21:20 23,3 C 22,2 C 18,3 C 79 % 1018,0 hPa 0,0 l/m 0 min 0 min 0 W/m 6,4 km/h (2 Bft) 97,87 %
15.08.2023 21:22 23,3 C 22,2 C 18,3 C 79 % 1018,0 hPa 0,0 l/m 0 min 0 min 0 W/m 6,4 km/h (2 Bft) 97,87 %
15.08.2023 21:24 23,3 C 22,2 C 18,3 C 79 % 1018,2 hPa 0,0 l/m 0 min 0 min 0 W/m 3,2 km/h (1 Bft) 93,48 %
15.08.2023 21:26 23,2 C 22,2 C 18,3 C 79 % 1018,2 hPa 0,0 l/m 0 min 0 min 0 W/m 6,4 km/h (2 Bft) 97,87 %
15.08.2023 21:28 23,2 C 22,2 C 18,3 C 79 % 1018,2 hPa 0,0 l/m 0 min 0 min 0 W/m 19,3 km/h (3 Bft) 97,87 %
15.08.2023 21:30 23,1 C 22,2 C 18,3 C 79 % 1018,3 hPa 0,0 l/m 0 min 0 min 0 W/m 12,9 km/h (3 Bft) 97,87 %
15.08.2023 21:32 23,1 C 22,2 C 18,3 C 79 % 1018,2 hPa 0,0 l/m 0 min 0 min 0 W/m 6,4 km/h (2 Bft) 93,62 %
15.08.2023 21:34 23,1 C 22,2 C 18,3 C 79 % 1018,2 hPa 0,0 l/m 0 min 0 min 0 W/m 6,4 km/h (2 Bft) 93,62 %
15.08.2023 21:36 23,1 C 22,2 C 18,3 C 80 % 1018,3 hPa 0,0 l/m 0 min 0 min 0 W/m 6,4 km/h (2 Bft) 95,65 %
15.08.2023 21:38 23,0 C 22,2 C 18,3 C 80 % 1018,3 hPa 0,0 l/m 0 min 0 min 0 W/m 3,2 km/h (1 Bft) 95,74 %
15.08.2023 21:40 22,9 C 22,2 C 18,3 C 80 % 1018,4 hPa 0,0 l/m 0 min 0 min 0 W/m 12,9 km/h (3 Bft) 95,74 %
15.08.2023 21:42 22,9 C 22,2 C 18,3 C 80 % 1018,4 hPa 0,0 l/m 0 min 0 min 0 W/m 6,4 km/h (2 Bft) 95,74 %
15.08.2023 21:44 22,9 C 21,7 C 17,8 C 80 % 1018,4 hPa 0,0 l/m 0 min 0 min 0 W/m 3,2 km/h (1 Bft) 97,87 %
15.08.2023 21:46 22,8 C 21,7 C 17,8 C 80 % 1018,4 hPa 0,0 l/m 0 min 0 min 0 W/m 6,4 km/h (2 Bft) 97,87 %
15.08.2023 21:48 22,8 C 21,7 C 17,8 C 80 % 1018,5 hPa 0,0 l/m 0 min 0 min 0 W/m 16,1 km/h (3 Bft) 97,87 %
15.08.2023 21:50 22,8 C 21,7 C 17,8 C 80 % 1018,5 hPa 0,0 l/m 0 min 0 min 0 W/m 6,4 km/h (2 Bft) 97,83 %
15.08.2023 21:52 22,7 C 21,7 C 17,8 C 80 % 1018,5 hPa 0,0 l/m 0 min 0 min 0 W/m 6,4 km/h (2 Bft) 97,87 %
15.08.2023 21:54 22,7 C 21,7 C 17,8 C 80 % 1018,4 hPa 0,0 l/m 0 min 0 min 0 W/m 3,2 km/h (1 Bft) 97,87 %
15.08.2023 21:56 22,7 C 21,7 C 17,8 C 80 % 1018,5 hPa 0,0 l/m 0 min 0 min 0 W/m 9,7 km/h (2 Bft) 95,74 %
15.08.2023 21:58 22,7 C 21,7 C 17,8 C 80 % 1018,5 hPa 0,0 l/m 0 min 0 min 0 W/m 12,9 km/h (3 Bft) 95,74 %
15.08.2023 22:00 22,6 C 21,7 C 17,8 C 80 % 1018,6 hPa 0,0 l/m 0 min 0 min 0 W/m 6,4 km/h (2 Bft) 97,87 %
15.08.2023 22:02 22,6 C 21,7 C 17,8 C 80 % 1018,5 hPa 0,0 l/m 0 min 0 min 0 W/m 3,2 km/h (1 Bft) 95,74 %
15.08.2023 22:04 22,6 C 21,7 C 17,8 C 80 % 1018,5 hPa 0,0 l/m 0 min 0 min 0 W/m 6,4 km/h (2 Bft) 97,83 %
15.08.2023 22:06 22,6 C 21,7 C 17,8 C 81 % 1018,6 hPa 0,0 l/m 0 min 0 min 0 W/m 9,7 km/h (2 Bft) 97,87 %
15.08.2023 22:08 22,5 C 21,7 C 17,8 C 81 % 1018,6 hPa 0,0 l/m 0 min 0 min 0 W/m 12,9 km/h (3 Bft) 97,87 %
15.08.2023 22:10 22,5 C 21,7 C 17,8 C 81 % 1018,6 hPa 0,0 l/m 0 min 0 min 0 W/m 6,4 km/h (2 Bft) 97,87 %
15.08.2023 22:12 22,5 C 21,7 C 17,8 C 81 % 1018,6 hPa 0,0 l/m 0 min 0 min 0 W/m 6,4 km/h (2 Bft) 97,87 %
15.08.2023 22:14 22,4 C 21,7 C 17,8 C 81 % 1018,6 hPa 0,0 l/m 0 min 0 min 0 W/m 3,2 km/h (1 Bft) 97,87 %
15.08.2023 22:16 22,4 C 21,7 C 17,8 C 81 % 1018,6 hPa 0,0 l/m 0 min 0 min 0 W/m 12,9 km/h (3 Bft) 95,65 %
15.08.2023 22:18 22,4 C 21,7 C 17,8 C 81 % 1018,6 hPa 0,0 l/m 0 min 0 min 0 W/m 6,4 km/h (2 Bft) 95,74 %
15.08.2023 22:20 22,4 C 21,7 C 17,8 C 81 % 1018,6 hPa 0,0 l/m 0 min 0 min 0 W/m 6,4 km/h (2 Bft) 97,87 %
15.08.2023 22:22 22,3 C 21,1 C 17,8 C 81 % 1018,6 hPa 0,0 l/m 0 min 0 min 0 W/m 9,7 km/h (2 Bft) 95,74 %
15.08.2023 22:24 22,3 C 21,1 C 17,8 C 81 % 1018,6 hPa 0,0 l/m 0 min 0 min 0 W/m 9,7 km/h (2 Bft) 100,00 %
15.08.2023 22:26 22,3 C 21,1 C 17,8 C 81 % 1018,6 hPa 0,0 l/m 0 min 0 min 0 W/m 6,4 km/h (2 Bft) 100,00 %
15.08.2023 22:28 22,3 C 21,1 C 17,8 C 81 % 1018,6 hPa 0,0 l/m 0 min 0 min 0 W/m 6,4 km/h (2 Bft) 100,00 %
15.08.2023 22:30 22,3 C 21,1 C 17,8 C 81 % 1018,6 hPa 0,0 l/m 0 min 0 min 0 W/m 3,2 km/h (1 Bft) 100,00 %
15.08.2023 22:32 22,2 C 21,1 C 17,8 C 81 % 1018,6 hPa 0,0 l/m 0 min 0 min 0 W/m 3,2 km/h (1 Bft) 100,00 %
15.08.2023 22:34 22,2 C 21,1 C 17,2 C 81 % 1018,6 hPa 0,0 l/m 0 min 0 min 0 W/m 3,2 km/h (1 Bft) 97,87 %
15.08.2023 22:36 22,2 C 21,1 C 17,2 C 82 % 1018,6 hPa 0,0 l/m 0 min 0 min 0 W/m 3,2 km/h (1 Bft) 97,87 %
15.08.2023 22:38 22,2 C 21,1 C 17,2 C 81 % 1018,6 hPa 0,0 l/m 0 min 0 min 0 W/m 6,4 km/h (2 Bft) 97,87 %
15.08.2023 22:40 22,2 C 21,1 C 17,2 C 81 % 1018,6 hPa 0,0 l/m 0 min 0 min 0 W/m 6,4 km/h (2 Bft) 97,87 %
15.08.2023 22:42 22,1 C 21,1 C 17,2 C 81 % 1018,6 hPa 0,0 l/m 0 min 0 min 0 W/m 12,9 km/h (3 Bft) 97,83 %
15.08.2023 22:44 22,1 C 21,1 C 17,2 C 81 % 1018,6 hPa 0,0 l/m 0 min 0 min 0 W/m 12,9 km/h (3 Bft) 97,87 %
15.08.2023 22:46 22,1 C 21,1 C 17,2 C 81 % 1018,6 hPa 0,0 l/m 0 min 0 min 0 W/m 3,2 km/h (1 Bft) 97,87 %
15.08.2023 22:48 22,1 C 21,1 C 17,2 C 81 % 1018,7 hPa 0,0 l/m 0 min 0 min 0 W/m 9,7 km/h (2 Bft) 95,74 %
15.08.2023 22:50 22,1 C 21,1 C 17,2 C 81 % 1018,7 hPa 0,0 l/m 0 min 0 min 0 W/m 6,4 km/h (2 Bft) 95,74 %
15.08.2023 22:52 22,1 C 21,1 C 17,2 C 81 % 1018,7 hPa 0,0 l/m 0 min 0 min 0 W/m 6,4 km/h (2 Bft) 95,74 %
15.08.2023 22:54 22,1 C 21,1 C 17,2 C 82 % 1018,7 hPa 0,0 l/m 0 min 0 min 0 W/m 3,2 km/h (1 Bft) 97,87 %
15.08.2023 22:56 22,0 C 21,1 C 17,2 C 82 % 1018,7 hPa 0,0 l/m 0 min 0 min 0 W/m 9,7 km/h (2 Bft) 95,65 %
15.08.2023 22:58 22,0 C 21,1 C 17,2 C 82 % 1018,7 hPa 0,0 l/m 0 min 0 min 0 W/m 6,4 km/h (2 Bft) 95,74 %
15.08.2023 23:00 22,0 C 21,1 C 17,2 C 82 % 1018,7 hPa 0,0 l/m 0 min 0 min 0 W/m 3,2 km/h (1 Bft) 95,74 %
15.08.2023 23:02 22,0 C 21,1 C 17,2 C 82 % 1018,7 hPa 0,0 l/m 0 min 0 min 0 W/m 6,4 km/h (2 Bft) 97,87 %
15.08.2023 23:04 22,0 C 21,1 C 17,2 C 82 % 1018,7 hPa 0,0 l/m 0 min 0 min 0 W/m 3,2 km/h (1 Bft) 97,56 %
15.08.2023 23:06 21,9 C 21,1 C 17,2 C 82 % 1018,6 hPa 0,0 l/m 0 min 0 min 0 W/m 6,4 km/h (2 Bft) 100,00 %
15.08.2023 23:08 21,9 C 21,1 C 17,2 C 81 % 1018,6 hPa 0,0 l/m 0 min 0 min 0 W/m 6,4 km/h (2 Bft) 100,00 %
15.08.2023 23:10 21,9 C 21,1 C 17,2 C 81 % 1018,6 hPa 0,0 l/m 0 min 0 min 0 W/m 6,4 km/h (2 Bft) 100,00 %
15.08.2023 23:12 21,9 C 21,1 C 17,2 C 81 % 1018,7 hPa 0,0 l/m 0 min 0 min 0 W/m 3,2 km/h (1 Bft) 100,00 %
15.08.2023 23:14 21,8 C 21,1 C 17,2 C 81 % 1018,8 hPa 0,0 l/m 0 min 0 min 0 W/m 6,4 km/h (2 Bft) 100,00 %
15.08.2023 23:16 21,8 C 21,1 C 17,2 C 81 % 1018,8 hPa 0,0 l/m 0 min 0 min 0 W/m 3,2 km/h (1 Bft) 97,87 %
15.08.2023 23:18 21,8 C 20,6 C 17,2 C 81 % 1018,8 hPa 0,0 l/m 0 min 0 min 0 W/m 6,4 km/h (2 Bft) 100,00 %
15.08.2023 23:20 21,8 C 20,6 C 17,2 C 81 % 1018,8 hPa 0,0 l/m 0 min 0 min 0 W/m 3,2 km/h (1 Bft) 100,00 %
15.08.2023 23:22 21,7 C 20,6 C 17,2 C 81 % 1018,9 hPa 0,0 l/m 0 min 0 min 0 W/m 12,9 km/h (3 Bft) 100,00 %
15.08.2023 23:24 21,7 C 20,6 C 17,2 C 81 % 1018,9 hPa 0,0 l/m 0 min 0 min 0 W/m 3,2 km/h (1 Bft) 100,00 %
15.08.2023 23:26 21,7 C 20,6 C 17,2 C 81 % 1018,9 hPa 0,0 l/m 0 min 0 min 0 W/m 6,4 km/h (2 Bft) 100,00 %
15.08.2023 23:28 21,7 C 20,6 C 17,2 C 81 % 1018,9 hPa 0,0 l/m 0 min 0 min 0 W/m 6,4 km/h (2 Bft) 100,00 %
15.08.2023 23:30 21,7 C 20,6 C 17,2 C 81 % 1019,0 hPa 0,0 l/m 0 min 0 min 0 W/m 3,2 km/h (1 Bft) 100,00 %
15.08.2023 23:32 21,7 C 20,6 C 17,2 C 81 % 1019,0 hPa 0,0 l/m 0 min 0 min 0 W/m 3,2 km/h (1 Bft) 95,74 %
15.08.2023 23:34 21,7 C 20,6 C 17,2 C 81 % 1018,9 hPa 0,0 l/m 0 min 0 min 0 W/m 3,2 km/h (1 Bft) 100,00 %
15.08.2023 23:36 21,6 C 20,6 C 16,7 C 81 % 1018,9 hPa 0,0 l/m 0 min 0 min 0 W/m 6,4 km/h (2 Bft) 97,87 %
15.08.2023 23:38 21,6 C 20,6 C 16,7 C 82 % 1019,0 hPa 0,0 l/m 0 min 0 min 0 W/m 9,7 km/h (2 Bft) 100,00 %
15.08.2023 23:40 21,6 C 20,6 C 16,7 C 82 % 1019,0 hPa 0,0 l/m 0 min 0 min 0 W/m 6,4 km/h (2 Bft) 100,00 %
15.08.2023 23:42 21,5 C 20,6 C 16,7 C 82 % 1019,0 hPa 0,0 l/m 0 min 0 min 0 W/m 9,7 km/h (2 Bft) 97,87 %
15.08.2023 23:44 21,5 C 20,6 C 16,7 C 82 % 1019,0 hPa 0,0 l/m 0 min 0 min 0 W/m 3,2 km/h (1 Bft) 97,87 %
15.08.2023 23:46 21,4 C 20,6 C 16,7 C 83 % 1018,9 hPa 0,0 l/m 0 min 0 min 0 W/m 3,2 km/h (1 Bft) 97,87 %
15.08.2023 23:48 21,4 C 20,0 C 16,7 C 83 % 1018,9 hPa 0,0 l/m 0 min 0 min 0 W/m 9,7 km/h (2 Bft) 97,87 %
15.08.2023 23:50 21,4 C 20,0 C 16,7 C 83 % 1019,0 hPa 0,0 l/m 0 min 0 min 0 W/m 3,2 km/h (1 Bft) 97,87 %
15.08.2023 23:52 21,3 C 20,0 C 16,7 C 83 % 1018,9 hPa 0,0 l/m 0 min 0 min 0 W/m 3,2 km/h (1 Bft) 95,65 %
15.08.2023 23:54 21,3 C 20,0 C 16,7 C 83 % 1018,9 hPa 0,0 l/m 0 min 0 min 0 W/m 3,2 km/h (1 Bft) 95,74 %
15.08.2023 23:56 21,3 C 20,0 C 16,7 C 83 % 1018,9 hPa 0,0 l/m 0 min 0 min 0 W/m 6,4 km/h (2 Bft) 95,74 %
15.08.2023 23:58 21,3 C 20,0 C 16,7 C 84 % 1019,0 hPa 0,0 l/m 0 min 0 min 0 W/m 3,2 km/h (1 Bft) 97,87 %
_ Min-Zeit 07:46 07:34 07:30 17:12 07:34 - - - - 07:30 09:20
Minimum _ 18,7 C 17,8 C 13,9 C 64 % 1014,7 hPa - - - - 0,0 km/h (0 Bft) 89,13 %
_ Max-Zeit 17:48 17:46 17:34 07:30 23:30 07:30 10:00 07:30 12:08 11:20 08:16
Maximum _ 28,0 C 32,8 C 22,8 C 96 % 1019,0 hPa 0,0 l/m 4 min 0 min 907 W/m 19,3 km/h
S-SO (3 Bft)
100,00 %
Durchschnitt _ 23,4 C 23,7 C 18,4 C 79 % 1016,5 hPa #0,0 l/m #6:38 h #0 min. 281 W/m 5,2 km/h (1 Bft) 97,57 %
© 2023 W. Hausmann